Location: Peterborough
(44.3091°N, 78.3197°W)
Time: 00:42:02
(UTC-04:00)

Vanguard 2 Rocket - Pass Details

Date: 28 March 2023
Orbit: 554 x 3314 km, 32.9° (Epoch: 02 June)

Event Time Altitude Azimuth Distance (km) Brightness Sun altitude
Rises 01:01:31 0° 268° (W) 4,804 10.6 -42.7°
Enters shadow 01:04:30 - 259° (W) 4,207 10.2 -42.7°
Reaches altitude 10° 01:04:43 10° 258° (WSW) 4,171 - -42.7°
Maximum altitude 01:14:43 32° 202° (SSW) 3,661 - -42.8°
Drops below altitude 10° 01:29:11 10° 149° (SSE) 6,032 - -42.7°
Sets 01:35:08 0° 141° (SE) 7,233 - -42.6°
